Temp
89 87 85 85 85 85 84 85 85 83 81 80 80 80 79 79 78 78 78 77 75 75 76 76 75 74 73 73 75 75 77 77 78 79 80 80 79 78 78 79 79 77 79 79 77 77 76 77 78 78 78 78 78 77 76 76 77 79 76 76 76 75 75
86 85 85 85 85 85 85 86 85 83 81 79 79 79 78 78 78 79 79 79 77 76 76 76 74 73 73 73 74 75 75 77 79 79 80 77 78 78 79 78 79 77 77 78 78 77 77 78 79 78 77 78 77 77 77 77 76 76 76 75 75 74 75
85 85 85 85 85 85 85 86 85 83 81 80 79 77 78 78 80 80 80 79 76 75 74 74 73 71 73 74 75 74 75 77 78 80 80 80 79 81 80 78 79 79 80 80 79 79 79 77 77 78 78 78 79 77 77 76 76 77 76 75 75 74 73
83 83 83 85 85 85 85 84 84 82 81 80 79 77 79 79 81 81 81 80 76 73 73 74 74 73 74 74 74 75 76 78 80 82 82 80 80 80 78 78 79 78 78 79 80 80 80 78 78 76 77 78 77 78 77 77 77 77 76 76 76 75 75
82 83 83 83 83 83 82 83 81 79 78 80 79 79 81 80 80 81 81 80 78 75 77 77 76 76 76 75 76 77 79 81 80 81 80 80 80 79 78 79 79 79 77 78 78 78 77 78 79 78 77 77 78 77 77 77 77 76 76 77 77 77 77
80 81 81 81 81 80 80 81 79 78 77 78 78 79 79 80 81 80 79 78 78 77 75 76 76 75 73 75 76 77 78 79 79 79 79 80 80 81 80 79 78 77 79 79 79 79 78 79 78 78 79 80 80 80 80 79 78 78 76 76 75 77 78
79 80 80 79 79 79 79 79 77 75 76 78 78 79 80 81 80 77 78 77 75 73 76 76 76 75 74 75 77 77 77 77 77 77 78 80 81 82 81 79 78 80 80 78 77 78 78 77 76 77 78 79 78 78 77 76 77 78 76 75 74 75 75
80 79 79 80 80 79 78 77 74 74 76 77 76 77 79 79 77 76 75 75 75 76 77 76 77 76 75 77 78 76 77 76 77 77 79 79 79 81 81 81 79 79 79 79 77 78 78 78 79 79 78 79 78 78 78 76 76 79 78 77 75 77 80
79 80 80 79 79 78 78 76 73 73 73 74 75 77 76 76 76 76 75 76 76 76 77 79 78 77 76 76 76 76 76 75 76 79 79 79 78 79 80 80 80 80 79 79 78 79 79 79 79 77 78 77 76 76 77 76 76 76 76 75 75 75 77
77 77 78 80 78 77 76 73 72 71 71 72 73 74 75 75 73 74 75 77 78 77 77 77 76 75 75 76 77 78 77 77 76 77 78 77 78 78 80 80 80 80 78 77 79 79 79 78 76 76 76 76 76 77 76 76 76 77 76 76 76 76 75
77 77 77 76 74 74 73 71 69 69 71 72 72 72 73 71 71 71 72 75 77 78 79 77 76 77 77 77 77 77 76 77 77 76 77 76 77 78 79 79 80 80 79 78 78 78 77 77 76 76 76 78 78 77 76 76 76 76 77 77 77 76 77
76 76 74 72 72 72 70 70 70 69 70 71 71 71 71 71 71 73 74 77 80 79 78 77 79 79 78 79 77 75 75 76 76 76 76 77 78 77 78 79 79 79 80 79 77 77 78 77 78 79 79 79 79 79 78 76 77 75 76 77 78 78 78
76 76 73 71 72 72 71 70 69 69 70 70 70 71 71 71 71 73 74 77 78 77 77 78 78 76 78 79 78 76 76 77 77 77 77 78 78 78 78 79 80 80 78 78 77 77 79 80 78 80 81 79 81 79 78 77 77 76 77 77 78 77 78
75 74 73 73 74 72 70 69 68 69 69 69 70 71 71 71 72 72 74 75 76 77 78 79 77 77 76 77 76 75 77 77 78 78 77 77 77 77 78 79 79 79 78 77 77 78 80 80 79 80 80 79 79 78 77 76 77 77 77 77 76 78 78
75 73 72 72 72 71 70 68 68 68 67 67 68 70 71 71 71 72 75 76 76 78 77 77 75 76 77 76 75 75 77 77 78 78 77 76 75 75 77 78 78 77 78 77 78 79 79 79 81 80 80 79 78 78 77 77 79 78 78 77 77 76 75
74 70 70 70 70 71 72 71 70 67 66 65 65 67 69 70 71 73 73 74 75 75 76 76 75 75 75 75 75 76 76 76 76 76 76 75 75 75 76 77 77 77 77 76 77 77 78 77 78 79 79 79 79 79 81 80 82 74 72 73 75 75 75
72 70 72 73 72 70 69 67 69 69 66 64 65 66 68 69 72 74 73 74 75 74 75 76 74 75 76 74 76 75 75 75 75 75 74 74 75 75 75 75 76 76 76 76 77 76 76 76 77 77 80 79 80 80 82 82 80 72 71 70 71 74 74
73 72 71 71 70 69 68 67 68 68 65 64 64 66 67 67 69 70 71 73 74 75 75 75 74 74 74 75 74 74 73 75 74 74 73 74 74 74 74 75 75 74 75 76 76 75 77 75 75 75 76 77 78 78 80 79 75 71 70 70 70 71 74
75 73 72 71 70 70 70 70 69 66 63 63 64 64 66 67 67 68 72 73 74 75 74 74 74 74 74 74 74 73 73 74 74 73 73 73 74 74 74 74 74 74 74 74 76 76 74 74 75 75 75 75 74 75 78 80 72 69 69 69 68 69 72
77 74 74 74 74 75 73 72 69 67 65 65 64 65 66 66 67 68 71 73 74 74 74 74 74 74 74 74 74 73 73 74 73 73 73 73 74 74 74 74 74 75 76 76 76 75 74 76 75 75 74 75 75 75 77 79 72 68 68 68 67 68 70
78 76 75 76 75 75 74 73 71 68 66 65 66 66 66 66 68 69 70 72 73 74 73 74 74 74 74 73 74 73 73 73 73 72 73 73 74 73 73 74 74 75 75 76 76 74 74 74 75 75 75 75 76 77 77 78 69 67 68 67 66 67 69
78 79 78 78 76 76 75 73 70 67 65 67 67 66 65 65 68 69 69 71 71 71 72 73 73 73 73 73 73 73 73 73 73 73 73 73 73 73 72 73 73 73 75 75 77 78 77 75 75 75 75 75 76 75 76 77 68 67 67 66 66 67 74
83 82 81 79 79 77 76 75 72 70 68 68 68 67 66 68 68 69 69 69 70 70 71 72 72 73 73 73 73 73 73 74 74 73 73 73 72 72 73 73 73 74 75 74 76 76 76 75 76 76 76 76 76 75 75 77 70 65 66 66 65 69 75
86 83 81 80 79 78 75 75 74 72 71 70 69 69 70 70 70 69 68 69 70 70 71 72 72 73 73 73 73 73 73 73 74 73 73 73 72 72 73 74 74 74 74 74 75 75 77 77 76 76 77 77 76 76 75 76 75 67 66 64 64 69 74
84 80 79 79 78 75 75 74 74 72 72 71 70 71 72 72 70 69 68 69 70 71 72 72 72 72 72 72 73 73 73 74 73 73 73 73 72 73 73 73 74 75 76 75 75 75 75 77 77 77 77 76 76 75 75 75 75 68 66 64 64 69 75
79 78 78 78 78 78 77 75 73 73 71 70 71 72 70 72 71 70 70 69 72 72 72 72 71 71 73 73 73 73 73 73 73 73 73 73 73 73 74 74 74 74 74 75 77 77 78 77 77 75 76 77 76 76 76 75 76 75 64 64 64 65 72
78 76 75 76 76 75 76 75 74 73 72 72 73 72 72 72 70 70 70 70 70 70 71 70 70 71 73 74 73 73 73 74 74 73 73 74 73 73 74 74 74 74 74 74 75 76 75 74 74 75 75 76 77 77 76 77 76 75 65 63 63 64 67
79 77 77 77 75 74 74 74 74 74 75 74 74 74 73 72 69 69 70 70 70 71 71 70 71 73 74 73 72 73 73 74 74 74 74 74 74 73 73 74 74 75 74 75 74 73 73 73 73 74 74 75 76 77 76 77 76 77 70 63 62 61 63
78 75 75 75 74 76 76 74 73 74 76 76 75 75 74 72 70 70 70 70 71 71 69 71 73 73 73 72 72 72 73 74 74 74 75 74 74 73 73 74 73 73 74 74 73 72 72 72 73 73 73 74 75 76 76 76 77 74 75 69 62 61 61
78 76 76 76 76 76 76 74 74 74 76 77 76 75 74 72 71 71 71 71 71 70 70 72 74 74 73 72 72 73 73 74 75 75 75 74 73 73 72 72 73 73 74 74 73 72 72 72 73 73 72 73 74 76 77 77 77 76 73 73 64 60 59
77 76 75 75 77 75 76 76 74 74 74 76 76 76 73 73 72 72 71 71 68 68 69 72 74 74 73 72 73 73 74 75 75 75 75 74 74 73 72 72 73 72 73 73 72 72 72 72 73 72 73 73 73 74 75 77 77 77 76 72 71 64 60
78 78 77 78 77 75 76 77 75 74 74 75 75 74 73 73 75 71 72 71 69 71 71 72 73 73 73 73 73 74 74 74 74 74 74 74 75 74 74 74 74 73 73 73 73 72 72 72 73 74 74 73 73 73 75 76 76 76 77 77 75 72 64
78 77 77 76 76 74 76 76 75 74 74 74 74 73 73 73 74 74 74 71 74 73 72 73 73 72 73 73 74 74 75 73 74 73 74 74 75 76 76 76 76 75 73 74 73 72 72 73 73 74 74 73 73 74 75 76 76 77 77 77 78 79 78
76 76 77 77 75 75 76 75 75 74 73 72 73 73 72 72 74 75 75 76 77 76 74 73 74 75 75 77 76 76 76 76 74 73 74 74 74 76 76 76 77 76 74 74 74 72 72 73 73 73 74 73 74 74 75 76 76 77 77 78 79 78 79
76 76 75 74 74 75 74 74 74 73 73 72 74 74 73 73 74 75 77 77 77 76 74 74 73 76 78 78 78 78 76 77 76 74 75 75 74 76 76 76 77 76 77 78 77 75 74 74 74 74 76 76 75 74 73 74 75 78 68 73 64 71 75
77 77 76 77 76 76 75 74 74 73 73 74 75 75 75 75 75 76 79 78 79 77 74 74 74 76 77 77 77 77 77 76 77 76 75 76 74 75 75 74 68 69 74 75 74 69 63 63 73 76 76 75 76 77 75 75 77 65 55 54 53 53 52
78 77 77 77 76 75 74 74 73 73 72 74 75 75 75 75 77 76 79 78 78 76 75 75 75 76 77 76 77 77 78 77 77 77 74 75 76 76 75 76 74 57 57 63 68 64 58 51 52 55 59 68 74 74 66 63 60 55 53 52 51 50 48
82 81 79 79 77 75 74 73 73 74 73 75 75 75 75 77 77 76 78 76 76 77 75 75 75 75 76 77 77 75 75 77 77 77 76 75 75 75 74 74 73 74 58 53 57 58 54 53 51 50 51 53 57 66 73 65 57 53 52 51 50 49 47
MSLP
1009.40 1010.00 1010.40 1010.64 1011.12 1011.44 1011.80 1012.00 1012.44 1013.20 1013.76 1014.36 1014.68 1015.00 1015.56 1015.92 1016.20 1016.60 1017.00 1017.36 1017.88 1018.20 1018.32 1018.60 1019.04 1019.56 1020.00 1020.16 1020.28 1020.32 1020.56 1020.84 1020.92 1021.16 1021.20 1021.32 1021.44 1021.72 1021.92 1022.00 1022.16 1022.44 1022.40 1022.44 1022.68 1022.76 1022.72 1022.60 1022.52 1022.48 1022.52 1022.48 1022.40 1022.36 1022.32 1022.16 1022.04 1021.92 1022.04 1022.00 1021.92 1021.96 1021.96
1010.04 1010.28 1010.64 1010.76 1011.12 1011.32 1011.56 1011.68 1012.40 1013.08 1013.72 1014.36 1014.56 1015.04 1015.60 1015.88 1016.16 1016.40 1016.72 1017.00 1017.56 1018.04 1018.28 1018.60 1019.28 1019.76 1020.12 1020.24 1020.36 1020.48 1020.72 1020.92 1020.80 1020.92 1021.04 1021.52 1021.64 1021.72 1021.80 1022.04 1022.16 1022.48 1022.44 1022.48 1022.68 1022.76 1022.76 1022.64 1022.48 1022.56 1022.56 1022.44 1022.52 1022.44 1022.36 1022.28 1022.20 1022.12 1022.12 1022.12 1022.20 1022.20 1022.04
1010.40 1010.52 1010.80 1010.88 1011.04 1011.24 1011.60 1011.80 1012.40 1012.96 1013.48 1014.04 1014.48 1015.16 1015.60 1015.76 1015.88 1016.20 1016.56 1017.04 1017.72 1018.28 1018.52 1018.84 1019.36 1019.76 1019.96 1020.20 1020.40 1020.64 1020.68 1020.84 1020.96 1021.00 1021.20 1021.36 1021.60 1021.60 1021.80 1022.08 1022.20 1022.32 1022.24 1022.40 1022.44 1022.60 1022.52 1022.72 1022.68 1022.60 1022.48 1022.44 1022.44 1022.52 1022.44 1022.44 1022.32 1022.16 1022.24 1022.20 1022.28 1022.40 1022.40
1010.80 1010.92 1010.96 1010.84 1011.00 1011.20 1011.60 1012.08 1012.56 1013.12 1013.44 1013.80 1014.44 1015.16 1015.44 1015.68 1015.76 1016.12 1016.36 1016.92 1017.96 1018.56 1018.84 1019.04 1019.32 1019.76 1019.88 1020.12 1020.44 1020.68 1020.72 1020.72 1020.68 1020.68 1020.80 1021.08 1021.36 1021.60 1021.92 1022.12 1022.20 1022.44 1022.60 1022.44 1022.40 1022.44 1022.48 1022.64 1022.76 1022.88 1022.72 1022.64 1022.68 1022.60 1022.60 1022.52 1022.36 1022.32 1022.28 1022.24 1022.28 1022.36 1022.36
1011.04 1011.00 1011.24 1011.44 1011.56 1011.84 1012.04 1012.36 1012.80 1013.44 1013.84 1013.96 1014.36 1014.88 1015.16 1015.52 1015.76 1016.08 1016.48 1016.88 1017.64 1018.36 1018.44 1018.64 1018.96 1019.28 1019.56 1019.92 1020.24 1020.40 1020.40 1020.52 1020.64 1020.68 1020.92 1021.16 1021.36 1021.60 1021.92 1022.04 1022.32 1022.40 1022.52 1022.60 1022.64 1022.68 1022.72 1022.64 1022.72 1022.72 1022.84 1022.72 1022.60 1022.64 1022.60 1022.52 1022.48 1022.44 1022.40 1022.28 1022.24 1022.20 1022.24
1011.52 1011.64 1011.64 1011.72 1011.96 1012.24 1012.48 1012.64 1013.08 1013.60 1014.04 1014.32 1014.68 1014.96 1015.20 1015.48 1015.72 1016.16 1016.60 1017.04 1017.40 1017.92 1018.44 1018.76 1019.08 1019.40 1019.80 1019.92 1020.00 1020.20 1020.36 1020.52 1020.72 1020.92 1021.16 1021.28 1021.40 1021.64 1021.88 1022.00 1022.36 1022.56 1022.52 1022.44 1022.44 1022.60 1022.64 1022.56 1022.60 1022.64 1022.52 1022.40 1022.40 1022.40 1022.36 1022.40 1022.48 1022.52 1022.64 1022.56 1022.52 1022.36 1022.36
1011.72 1011.80 1011.96 1012.12 1012.32 1012.56 1012.76 1012.92 1013.56 1014.12 1014.28 1014.40 1014.68 1014.96 1015.24 1015.48 1015.92 1016.64 1016.96 1017.48 1017.92 1018.44 1018.60 1018.88 1019.16 1019.40 1019.68 1019.88 1020.00 1020.28 1020.64 1020.84 1021.04 1021.28 1021.32 1021.32 1021.32 1021.52 1021.72 1022.08 1022.32 1022.28 1022.20 1022.48 1022.60 1022.64 1022.72 1022.92 1022.96 1022.84 1022.64 1022.60 1022.60 1022.64 1022.80 1022.80 1022.68 1022.60 1022.68 1022.76 1022.84 1022.72 1022.68
1011.76 1012.12 1012.24 1012.16 1012.32 1012.64 1012.96 1013.36 1014.12 1014.48 1014.56 1014.72 1015.04 1015.32 1015.40 1015.76 1016.40 1016.92 1017.24 1017.56 1018.00 1018.32 1018.36 1018.76 1019.08 1019.44 1019.68 1019.80 1019.96 1020.44 1020.72 1020.96 1021.16 1021.36 1021.36 1021.40 1021.52 1021.56 1021.84 1022.04 1022.20 1022.28 1022.40 1022.52 1022.76 1022.68 1022.76 1022.88 1022.80 1022.76 1022.68 1022.64 1022.68 1022.72 1022.80 1022.92 1022.80 1022.52 1022.52 1022.68 1022.68 1022.40 1022.16
1012.08 1012.12 1012.36 1012.44 1012.68 1013.08 1013.32 1013.84 1014.48 1014.84 1015.04 1015.24 1015.36 1015.40 1015.80 1016.24 1016.48 1016.76 1017.20 1017.52 1017.88 1018.16 1018.36 1018.48 1019.00 1019.44 1019.68 1019.92 1020.24 1020.52 1020.76 1021.08 1021.32 1021.36 1021.44 1021.60 1021.72 1021.80 1021.84 1022.08 1022.28 1022.24 1022.24 1022.48 1022.60 1022.60 1022.60 1022.76 1022.76 1022.96 1022.80 1022.88 1022.92 1022.88 1022.88 1022.88 1022.92 1022.84 1022.88 1022.92 1022.88 1022.76 1022.56
1012.72 1012.84 1012.68 1012.56 1013.00 1013.40 1013.76 1014.52 1014.88 1015.24 1015.44 1015.56 1015.64 1015.88 1016.04 1016.32 1016.68 1016.92 1017.12 1017.28 1017.68 1018.12 1018.44 1018.76 1019.24 1019.56 1019.80 1019.96 1020.16 1020.44 1020.80 1021.12 1021.32 1021.40 1021.48 1021.76 1021.84 1022.00 1021.96 1022.12 1022.28 1022.28 1022.48 1022.52 1022.44 1022.64 1022.76 1022.88 1023.12 1023.12 1023.08 1023.00 1022.96 1022.92 1023.00 1023.00 1022.92 1022.84 1022.80 1022.84 1022.80 1022.72 1022.64
1012.92 1013.04 1013.16 1013.48 1013.96 1014.08 1014.36 1014.92 1015.32 1015.56 1015.64 1015.76 1015.96 1015.96 1016.16 1016.68 1016.92 1017.20 1017.40 1017.44 1017.68 1017.88 1018.16 1018.68 1019.12 1019.48 1019.72 1019.92 1020.20 1020.56 1020.80 1021.00 1021.24 1021.48 1021.64 1021.84 1021.96 1022.08 1022.16 1022.28 1022.24 1022.32 1022.44 1022.56 1022.68 1022.76 1022.96 1023.12 1023.12 1023.12 1022.92 1022.72 1022.72 1022.88 1022.96 1022.96 1022.92 1022.92 1022.80 1022.68 1022.64 1022.80 1022.64
1013.12 1013.28 1013.84 1014.28 1014.44 1014.60 1014.84 1014.92 1015.16 1015.36 1015.60 1015.88 1016.12 1016.32 1016.56 1016.76 1016.96 1017.08 1017.24 1017.36 1017.36 1017.72 1018.28 1018.76 1018.92 1019.24 1019.60 1019.92 1020.28 1020.60 1020.84 1021.08 1021.32 1021.56 1021.76 1021.84 1022.04 1022.20 1022.28 1022.28 1022.32 1022.32 1022.36 1022.52 1022.84 1022.88 1022.88 1023.04 1022.88 1022.80 1022.68 1022.72 1022.72 1022.68 1022.84 1022.92 1022.84 1023.00 1022.96 1022.72 1022.64 1022.60 1022.44
1013.16 1013.36 1014.04 1014.40 1014.28 1014.44 1014.60 1014.84 1015.04 1015.12 1015.20 1015.56 1016.04 1016.32 1016.60 1016.84 1017.00 1017.00 1017.16 1017.28 1017.48 1017.92 1018.28 1018.60 1018.96 1019.40 1019.64 1019.80 1020.24 1020.60 1020.80 1021.08 1021.32 1021.52 1021.68 1021.76 1021.92 1022.12 1022.28 1022.28 1022.28 1022.32 1022.52 1022.60 1022.80 1022.88 1022.64 1022.76 1022.88 1022.52 1022.52 1022.72 1022.48 1022.60 1022.76 1022.80 1022.88 1022.96 1022.76 1022.68 1022.56 1022.52 1022.40
1013.24 1013.60 1013.96 1014.04 1014.00 1014.36 1014.84 1015.12 1015.32 1015.44 1015.40 1015.60 1016.00 1016.28 1016.68 1016.92 1016.96 1017.08 1017.28 1017.52 1017.84 1018.08 1018.36 1018.60 1019.04 1019.44 1019.68 1019.84 1020.28 1020.64 1020.76 1020.92 1021.08 1021.36 1021.60 1021.64 1021.92 1022.16 1022.20 1022.20 1022.32 1022.40 1022.52 1022.72 1022.84 1022.76 1022.60 1022.64 1022.68 1022.60 1022.64 1022.68 1022.64 1022.76 1022.76 1022.88 1022.76 1022.64 1022.60 1022.56 1022.64 1022.32 1022.36
1013.64 1014.00 1014.24 1014.36 1014.56 1014.84 1015.36 1015.88 1016.04 1015.96 1016.00 1015.96 1016.16 1016.56 1016.84 1017.16 1017.32 1017.32 1017.40 1017.64 1017.88 1018.12 1018.52 1018.76 1019.20 1019.48 1019.72 1020.00 1020.36 1020.56 1020.60 1020.84 1021.04 1021.28 1021.60 1021.80 1022.08 1022.28 1022.32 1022.36 1022.48 1022.60 1022.64 1022.80 1022.80 1022.72 1022.64 1022.64 1022.32 1022.48 1022.48 1022.64 1022.68 1022.72 1022.68 1022.64 1022.28 1022.48 1022.64 1022.60 1022.52 1022.52 1022.72
1014.12 1014.76 1014.80 1014.76 1015.04 1015.04 1015.24 1015.76 1016.08 1016.48 1016.60 1016.64 1016.68 1016.88 1016.92 1017.20 1017.44 1017.48 1017.68 1018.04 1018.12 1018.40 1018.68 1018.88 1019.32 1019.52 1019.76 1020.08 1020.32 1020.40 1020.60 1020.88 1021.00 1021.36 1021.60 1021.96 1022.24 1022.40 1022.44 1022.48 1022.56 1022.64 1022.76 1022.88 1022.88 1022.84 1022.84 1022.92 1022.84 1022.64 1022.64 1022.60 1022.52 1022.40 1022.08 1022.04 1021.84 1022.68 1022.96 1023.00 1022.84 1022.72 1022.60
1014.24 1014.72 1014.32 1014.32 1014.52 1015.04 1015.36 1015.72 1015.88 1016.44 1016.92 1017.52 1017.72 1017.64 1017.52 1017.52 1017.48 1017.56 1017.84 1018.00 1018.16 1018.56 1018.76 1018.92 1019.32 1019.48 1019.76 1020.12 1020.20 1020.48 1020.72 1021.00 1021.20 1021.44 1021.80 1022.04 1022.20 1022.40 1022.48 1022.60 1022.64 1022.76 1022.88 1022.88 1022.88 1022.92 1022.96 1022.88 1022.80 1022.60 1022.28 1022.44 1022.28 1022.16 1021.88 1021.76 1022.04 1022.76 1022.92 1022.96 1022.92 1022.72 1022.64
1013.56 1014.04 1014.04 1013.96 1014.16 1014.48 1014.88 1015.36 1016.00 1016.48 1017.20 1017.80 1018.12 1018.12 1018.16 1018.28 1018.40 1018.44 1018.64 1018.52 1018.48 1018.60 1018.72 1019.00 1019.28 1019.52 1019.80 1020.00 1020.28 1020.60 1020.84 1020.92 1021.24 1021.60 1021.92 1022.12 1022.32 1022.40 1022.52 1022.60 1022.76 1022.88 1022.92 1022.92 1022.96 1022.96 1022.80 1022.96 1023.00 1022.96 1022.76 1022.60 1022.52 1022.36 1022.00 1021.96 1022.32 1022.68 1022.84 1022.88 1022.84 1022.76 1022.56
1012.96 1013.44 1013.56 1013.68 1014.00 1014.44 1014.80 1015.24 1015.60 1016.12 1016.80 1016.92 1017.28 1017.72 1017.96 1017.92 1018.56 1018.88 1018.68 1018.64 1018.52 1018.56 1018.88 1019.12 1019.36 1019.56 1019.80 1020.00 1020.32 1020.68 1020.88 1020.96 1021.36 1021.72 1021.96 1022.20 1022.28 1022.40 1022.52 1022.68 1022.84 1022.92 1022.96 1023.00 1022.80 1022.80 1023.00 1023.00 1022.96 1023.00 1022.84 1022.80 1022.76 1022.64 1022.24 1021.92 1022.36 1022.64 1022.80 1022.84 1022.84 1022.76 1022.60
1012.48 1013.08 1013.16 1013.24 1013.28 1013.48 1013.92 1014.48 1015.24 1015.84 1016.40 1016.64 1016.52 1016.16 1016.72 1017.52 1017.84 1018.24 1018.40 1018.56 1018.52 1018.72 1018.92 1019.16 1019.40 1019.60 1019.88 1020.12 1020.40 1020.72 1020.96 1021.12 1021.44 1021.76 1022.00 1022.16 1022.20 1022.40 1022.52 1022.68 1022.84 1022.72 1022.68 1022.76 1022.76 1022.96 1022.96 1022.80 1022.84 1022.84 1022.88 1022.72 1022.60 1022.56 1022.32 1022.04 1022.44 1022.64 1022.76 1022.76 1022.76 1022.68 1022.60
1012.48 1012.64 1012.92 1012.64 1012.64 1012.56 1012.92 1013.56 1014.44 1015.12 1015.88 1016.48 1016.80 1016.44 1016.56 1017.44 1017.96 1018.08 1018.40 1018.56 1018.64 1018.68 1018.96 1019.20 1019.44 1019.68 1019.96 1020.24 1020.44 1020.72 1021.00 1021.24 1021.48 1021.80 1022.00 1022.16 1022.28 1022.48 1022.52 1022.64 1022.64 1022.64 1022.60 1022.56 1022.68 1022.84 1022.92 1022.84 1022.80 1022.72 1022.64 1022.52 1022.40 1022.28 1022.16 1021.96 1022.40 1022.56 1022.64 1022.64 1022.64 1022.64 1022.52
1012.12 1012.00 1012.28 1012.32 1012.60 1012.68 1012.84 1013.44 1014.00 1014.72 1015.36 1015.80 1016.44 1016.52 1015.92 1016.64 1017.32 1017.80 1018.20 1018.44 1018.64 1018.80 1019.00 1019.24 1019.52 1019.80 1020.04 1020.32 1020.52 1020.76 1020.96 1021.20 1021.52 1021.64 1021.88 1022.12 1022.32 1022.48 1022.64 1022.60 1022.72 1022.76 1022.68 1022.64 1022.36 1022.12 1022.40 1022.68 1022.60 1022.56 1022.52 1022.40 1022.32 1022.32 1022.24 1022.00 1022.24 1022.40 1022.44 1022.48 1022.48 1022.48 1022.12
1011.16 1011.52 1011.52 1011.88 1012.16 1012.76 1013.44 1013.80 1014.16 1014.60 1015.04 1015.44 1015.84 1016.48 1016.68 1016.48 1016.92 1017.60 1018.04 1018.48 1018.68 1018.84 1019.08 1019.28 1019.56 1019.80 1020.04 1020.32 1020.52 1020.76 1020.92 1021.12 1021.36 1021.60 1021.80 1022.04 1022.36 1022.48 1022.56 1022.72 1022.80 1022.68 1022.56 1022.72 1022.52 1022.36 1022.44 1022.48 1022.44 1022.32 1022.28 1022.28 1022.16 1022.20 1022.20 1021.96 1022.04 1022.20 1022.28 1022.32 1022.32 1022.20 1021.88
1010.48 1011.04 1011.52 1011.80 1012.16 1012.72 1013.44 1013.88 1014.12 1014.52 1014.80 1015.20 1015.68 1016.08 1016.52 1016.80 1017.20 1017.64 1018.00 1018.28 1018.56 1018.84 1019.12 1019.36 1019.60 1019.72 1020.00 1020.24 1020.44 1020.72 1020.96 1021.12 1021.32 1021.60 1021.76 1022.04 1022.32 1022.48 1022.52 1022.56 1022.56 1022.60 1022.52 1022.64 1022.52 1022.44 1022.16 1022.12 1022.24 1022.16 1022.00 1022.04 1022.08 1022.04 1022.12 1021.96 1021.84 1021.96 1022.08 1022.16 1022.20 1022.12 1021.88
1010.84 1011.56 1011.96 1012.24 1012.56 1013.12 1013.40 1013.76 1014.12 1014.60 1014.92 1015.20 1015.72 1016.04 1016.40 1016.92 1017.48 1017.92 1018.08 1018.12 1018.40 1018.68 1018.96 1019.24 1019.44 1019.72 1020.00 1020.24 1020.40 1020.64 1020.88 1021.12 1021.36 1021.52 1021.68 1021.92 1022.16 1022.24 1022.36 1022.48 1022.48 1022.28 1022.24 1022.44 1022.36 1022.32 1022.32 1022.12 1021.96 1021.96 1021.92 1021.96 1022.00 1021.96 1022.04 1021.84 1021.68 1021.72 1021.84 1021.96 1022.08 1022.00 1021.68
1011.84 1012.08 1012.28 1012.36 1012.56 1012.80 1013.20 1013.60 1014.20 1014.68 1015.16 1015.56 1015.84 1016.20 1016.68 1017.08 1017.52 1017.84 1017.96 1018.04 1018.16 1018.56 1018.80 1019.08 1019.36 1019.56 1019.80 1020.08 1020.36 1020.56 1020.80 1021.00 1021.32 1021.48 1021.64 1021.80 1021.96 1022.00 1022.08 1022.24 1022.28 1022.28 1022.36 1022.36 1022.16 1022.00 1021.84 1022.00 1021.84 1022.08 1021.96 1021.80 1021.84 1021.80 1021.68 1021.68 1021.56 1021.48 1021.64 1021.76 1021.88 1022.00 1021.76
1011.80 1012.28 1012.60 1012.64 1012.84 1012.96 1013.32 1013.76 1014.16 1014.60 1014.92 1015.44 1015.76 1016.20 1016.60 1016.88 1017.28 1017.68 1017.84 1017.96 1018.12 1018.44 1018.68 1019.00 1019.32 1019.60 1019.80 1020.00 1020.28 1020.48 1020.72 1020.88 1021.16 1021.44 1021.52 1021.60 1021.80 1021.92 1021.96 1022.08 1022.24 1022.24 1022.24 1022.36 1022.16 1022.00 1022.08 1022.20 1022.08 1022.00 1021.96 1021.76 1021.56 1021.52 1021.44 1021.40 1021.40 1021.24 1021.44 1021.56 1021.72 1021.80 1021.84
1011.80 1012.32 1012.32 1012.40 1012.84 1013.12 1013.48 1013.80 1014.04 1014.32 1014.72 1015.16 1015.64 1015.92 1016.24 1016.64 1017.24 1017.60 1017.80 1017.96 1018.24 1018.36 1018.56 1018.92 1019.36 1019.52 1019.72 1020.00 1020.28 1020.44 1020.64 1020.80 1021.00 1021.20 1021.40 1021.48 1021.64 1021.84 1021.96 1022.00 1022.00 1022.04 1022.24 1022.08 1022.12 1022.20 1022.24 1022.16 1022.12 1022.00 1021.88 1021.64 1021.48 1021.32 1021.28 1021.12 1021.16 1021.12 1021.16 1021.36 1021.48 1021.60 1021.72
1012.12 1012.60 1012.80 1012.96 1013.32 1013.12 1013.28 1013.88 1014.12 1014.32 1014.48 1014.80 1015.32 1015.64 1016.00 1016.44 1017.08 1017.44 1017.64 1018.04 1018.20 1018.20 1018.68 1019.04 1019.24 1019.48 1019.72 1020.00 1020.24 1020.44 1020.60 1020.76 1020.96 1021.16 1021.20 1021.40 1021.56 1021.76 1021.96 1022.00 1022.08 1022.12 1021.96 1022.04 1022.08 1022.20 1022.20 1022.08 1022.00 1021.96 1021.88 1021.68 1021.40 1021.20 1021.08 1020.96 1020.84 1020.96 1021.00 1021.04 1021.24 1021.36 1021.48
1012.04 1012.48 1012.68 1012.72 1012.96 1013.16 1013.32 1013.72 1013.92 1014.32 1014.40 1014.60 1015.04 1015.48 1015.88 1016.44 1017.00 1017.28 1017.48 1017.80 1018.04 1018.48 1018.72 1018.96 1019.12 1019.40 1019.72 1019.96 1020.16 1020.36 1020.52 1020.68 1020.84 1020.96 1021.04 1021.20 1021.52 1021.72 1021.92 1021.92 1021.92 1021.92 1021.92 1021.92 1022.04 1022.08 1022.08 1021.92 1021.88 1021.84 1021.80 1021.68 1021.40 1021.08 1020.92 1020.76 1020.68 1020.60 1020.76 1020.84 1020.96 1021.08 1021.20
1012.12 1012.52 1012.76 1012.92 1013.00 1013.32 1013.44 1013.72 1014.04 1014.32 1014.56 1014.60 1014.96 1015.36 1015.84 1016.08 1016.64 1017.08 1017.36 1017.60 1018.12 1018.64 1018.80 1018.88 1019.04 1019.32 1019.64 1019.84 1020.04 1020.24 1020.32 1020.52 1020.64 1020.84 1020.96 1021.12 1021.36 1021.64 1021.72 1021.76 1021.68 1021.84 1021.72 1021.76 1021.88 1021.92 1021.96 1021.84 1021.64 1021.64 1021.56 1021.48 1021.36 1021.16 1020.92 1020.64 1020.44 1020.36 1020.36 1020.56 1020.64 1020.76 1020.84
1012.00 1012.28 1012.56 1012.72 1012.96 1013.32 1013.36 1013.52 1013.92 1014.36 1014.68 1014.76 1014.96 1015.44 1015.84 1016.08 1016.24 1016.96 1017.04 1017.52 1017.96 1018.24 1018.56 1018.72 1018.96 1019.28 1019.48 1019.68 1019.92 1020.08 1020.20 1020.48 1020.60 1020.68 1020.84 1021.00 1021.12 1021.32 1021.40 1021.36 1021.40 1021.56 1021.52 1021.56 1021.68 1021.68 1021.72 1021.68 1021.44 1021.24 1021.16 1021.24 1021.16 1021.04 1020.80 1020.48 1020.32 1020.24 1020.08 1020.04 1020.12 1020.24 1020.40
1012.04 1012.36 1012.64 1012.92 1013.08 1013.32 1013.40 1013.56 1014.04 1014.36 1014.56 1015.00 1015.12 1015.60 1015.92 1016.12 1016.20 1016.52 1016.88 1017.52 1017.60 1017.92 1018.28 1018.56 1018.80 1019.16 1019.36 1019.52 1019.72 1019.88 1020.04 1020.36 1020.48 1020.64 1020.76 1020.92 1020.96 1020.96 1021.04 1021.04 1021.08 1021.16 1021.32 1021.32 1021.36 1021.48 1021.48 1021.40 1021.24 1021.08 1021.00 1021.04 1020.96 1020.76 1020.56 1020.32 1020.16 1020.04 1019.92 1019.80 1019.76 1019.60 1019.52
1012.20 1012.48 1012.60 1012.72 1013.12 1013.32 1013.48 1013.64 1014.00 1014.48 1014.80 1015.20 1015.28 1015.56 1015.92 1016.12 1016.20 1016.24 1016.64 1017.04 1017.12 1017.44 1017.96 1018.36 1018.60 1018.80 1019.08 1019.16 1019.24 1019.48 1019.72 1019.92 1020.16 1020.44 1020.52 1020.68 1020.80 1020.72 1020.76 1020.72 1020.68 1020.80 1020.92 1021.00 1021.08 1021.20 1021.28 1021.16 1021.04 1021.04 1020.88 1020.88 1020.72 1020.52 1020.32 1020.16 1019.96 1019.88 1019.72 1019.52 1019.48 1019.48 1019.44
1012.28 1012.52 1012.76 1013.16 1013.36 1013.36 1013.68 1013.88 1014.12 1014.44 1014.80 1015.16 1015.20 1015.48 1015.88 1016.04 1016.08 1016.16 1016.44 1016.68 1016.76 1017.16 1017.80 1018.20 1018.52 1018.48 1018.60 1018.68 1018.84 1019.12 1019.44 1019.64 1019.96 1020.32 1020.32 1020.40 1020.56 1020.48 1020.32 1020.36 1020.36 1020.40 1020.32 1020.24 1020.36 1020.56 1020.80 1020.84 1020.76 1020.64 1020.40 1020.32 1020.32 1020.40 1020.40 1020.20 1019.96 1019.60 1019.52 1019.60 1019.80 1019.88 1019.80
1012.28 1012.52 1012.80 1012.96 1013.16 1013.32 1013.56 1013.84 1014.16 1014.56 1014.88 1015.04 1015.04 1015.28 1015.56 1015.84 1016.04 1016.16 1016.20 1016.44 1016.60 1017.16 1017.72 1018.08 1018.40 1018.40 1018.28 1018.52 1018.96 1019.04 1019.44 1019.60 1019.52 1019.80 1020.12 1020.08 1020.28 1020.28 1020.24 1020.08 1020.20 1020.28 1020.44 1020.44 1020.20 1020.24 1020.36 1020.56 1020.60 1020.32 1020.20 1020.20 1019.96 1019.80 1020.04 1019.84 1019.44 1019.32 1019.56 1019.68 1019.80 1019.92 1020.04
1012.24 1012.52 1012.80 1012.96 1013.28 1013.56 1013.84 1014.16 1014.48 1014.72 1015.04 1015.04 1015.00 1015.32 1015.56 1015.76 1015.88 1016.12 1016.04 1016.40 1016.72 1017.20 1017.52 1017.92 1018.20 1018.24 1018.40 1018.68 1018.80 1018.88 1019.04 1019.28 1019.40 1019.40 1019.84 1019.80 1019.80 1019.92 1020.04 1019.96 1019.92 1020.08 1020.24 1020.32 1020.24 1020.24 1020.32 1020.40 1020.40 1020.36 1020.36 1020.40 1020.12 1019.52 1019.44 1019.48 1019.44 1019.44 1019.40 1019.40 1019.44 1019.56 1019.72
1011.68 1012.04 1012.44 1012.76 1013.16 1013.60 1013.92 1014.24 1014.40 1014.60 1014.84 1014.88 1015.08 1015.36 1015.48 1015.68 1015.88 1016.08 1016.08 1016.56 1016.80 1017.00 1017.40 1017.72 1017.96 1018.24 1018.36 1018.48 1018.56 1018.88 1019.12 1018.92 1019.08 1019.16 1019.32 1019.64 1019.68 1019.72 1019.84 1020.00 1020.00 1019.92 1019.88 1019.96 1020.00 1019.96 1020.00 1020.04 1020.08 1020.12 1020.08 1020.08 1020.16 1019.92 1019.40 1019.16 1019.16 1019.20 1019.16 1019.16 1019.20 1019.32 1019.56
Wind_Speed
12 13 14 14 15 17 18 19 20 19 16 15 15 15 15 15 14 14 14 15 15 15 15 14 13 12 11 10 11 11 10 9 8 8 7 6 5 5 5 4 4 3 4 4 4 3 4 4 4 5 5 4 4 4 4 3 3 4 4 5 5 5 6
11 12 13 14 15 17 18 19 19 17 16 15 14 16 15 16 15 14 15 15 15 16 14 13 12 10 9 9 9 10 10 9 8 7 6 6 5 5 5 4 4 4 2 4 4 4 4 3 3 3 3 4 5 5 5 5 4 5 5 5 5 5 5
9 10 12 12 14 16 17 18 18 16 17 15 14 15 15 15 15 15 14 14 14 13 13 13 13 12 11 11 11 11 11 9 9 9 8 7 8 7 6 5 5 5 4 4 4 4 4 4 3 2 3 4 5 4 5 5 5 5 5 5 6 5 5
7 9 11 12 13 15 17 17 18 16 16 15 16 15 15 15 14 13 12 14 15 14 14 13 13 12 11 12 11 10 11 10 9 8 8 8 8 7 6 6 4 5 5 5 4 3 4 4 4 3 2 4 5 5 5 6 6 6 5 4 4 5 5
8 9 10 11 13 13 15 15 17 15 16 12 15 15 15 14 13 13 12 13 15 14 14 13 11 12 11 11 9 9 10 11 8 7 7 7 7 6 7 7 6 5 4 5 5 4 4 4 4 3 4 3 4 4 5 6 7 6 5 4 4 5 6
9 9 9 10 11 12 13 15 17 15 15 15 15 14 14 15 13 15 14 14 14 13 12 13 13 12 12 11 10 10 9 8 7 7 8 8 8 8 7 7 6 6 7 6 4 4 3 2 2 2 3 4 3 4 5 5 6 6 6 6 6 6 6
8 8 9 10 12 13 14 15 16 14 14 13 12 13 14 14 14 15 13 14 13 14 15 13 12 12 11 10 11 11 10 10 8 9 8 9 8 8 8 8 7 6 5 5 5 4 4 3 3 2 3 3 4 5 5 4 4 4 4 4 4 4 5
7 8 8 10 11 12 13 15 14 13 13 11 13 14 14 13 14 14 12 12 12 12 12 13 12 11 11 11 11 11 10 10 9 9 8 8 8 8 9 8 6 7 7 7 6 4 5 4 4 3 3 4 5 5 5 4 3 4 5 5 4 3 3
6 7 8 9 11 11 12 13 13 14 15 15 14 14 14 14 13 13 13 13 12 11 12 12 12 11 10 10 11 11 10 10 9 10 10 10 8 9 9 9 8 7 7 8 7 6 5 4 5 3 3 5 5 4 4 4 3 3 4 3 3 4 5
6 6 7 9 10 10 11 11 12 11 13 13 13 14 14 13 12 12 11 12 12 13 13 13 12 11 10 11 12 11 11 11 10 11 10 10 9 9 9 9 7 7 7 6 5 6 5 4 3 3 3 4 4 5 4 3 3 2 2 1 3 3 2
6 6 7 8 10 10 12 12 12 10 10 10 10 11 12 13 11 11 11 11 12 13 14 13 12 11 11 11 12 12 11 11 11 11 11 10 9 9 9 8 7 7 7 6 6 5 5 4 3 3 3 3 5 5 4 3 3 2 3 2 3 3 4
7 7 8 9 10 12 12 11 11 11 12 10 11 13 13 12 12 12 12 13 12 13 12 12 11 11 11 11 11 11 11 11 11 11 11 10 10 9 8 7 7 6 7 5 5 4 4 3 3 2 2 2 3 4 4 3 2 3 3 3 3 3 4
8 8 10 10 11 10 10 10 13 14 14 13 12 14 10 11 11 12 11 12 13 12 12 13 12 11 11 11 11 11 11 11 11 10 10 10 9 8 7 7 7 6 6 5 4 4 4 4 2 1 3 1 1 3 3 2 3 2 2 2 2 3 4
8 8 10 10 11 11 11 9 10 12 13 13 13 14 13 10 11 12 11 12 12 12 12 10 12 11 11 10 10 10 11 10 11 10 9 8 9 8 7 6 6 6 5 4 4 4 4 3 4 5 3 2 2 2 2 1 1 1 1 2 3 4 4
9 9 9 10 8 7 8 8 7 10 12 12 14 16 16 12 11 11 11 12 12 12 12 11 11 11 11 10 10 10 10 9 9 9 9 8 8 8 7 6 6 5 5 4 4 3 2 3 3 1 1 2 1 1 1 2 2 3 5 5 4 4 4
7 8 9 9 9 9 9 8 9 9 10 11 14 12 13 12 12 12 12 12 12 11 11 11 11 11 10 10 9 9 9 9 8 9 9 9 8 7 6 6 6 6 5 5 4 3 3 3 3 4 3 3 3 2 2 1 2 6 2 5 5 5 4
9 9 11 11 11 10 9 8 8 10 10 7 7 8 7 8 11 12 12 12 12 11 11 11 11 10 10 9 9 9 9 9 9 9 9 8 8 7 7 6 6 5 5 4 4 3 3 4 3 4 1 2 2 2 1 1 6 5 1 3 6 6 5
11 11 13 13 14 14 12 12 10 10 9 9 8 7 6 5 4 6 8 10 11 11 11 10 10 9 9 9 9 9 9 9 9 9 9 8 8 8 7 7 6 6 6 5 4 4 5 4 4 3 3 2 2 3 2 1 7 2 1 4 5 7 6
12 13 14 14 14 14 14 13 12 12 12 13 12 9 7 8 6 6 8 10 10 10 10 10 9 9 9 8 9 9 9 8 9 9 9 9 8 8 8 7 7 7 6 6 5 4 4 4 4 3 3 2 3 2 3 3 10 3 1 4 5 6 7
12 13 14 14 15 16 16 15 12 12 10 10 12 15 12 8 10 8 8 8 9 11 10 10 9 9 8 8 8 8 8 8 9 9 9 9 9 8 8 8 7 7 6 5 5 4 4 5 5 4 4 4 3 2 2 4 9 2 2 3 4 6 7
10 13 14 16 16 17 18 17 16 15 15 12 11 10 11 10 9 8 8 8 10 10 10 9 9 9 8 8 8 8 8 8 9 9 9 9 9 9 8 8 7 7 6 6 6 6 5 5 5 4 4 4 3 3 3 1 7 2 1 1 3 4 6
12 13 14 13 15 16 16 18 19 17 16 15 14 11 15 15 12 11 10 9 9 9 9 10 9 10 9 9 9 9 9 8 9 9 9 9 9 9 9 8 8 7 6 5 6 5 4 5 5 4 4 3 3 3 3 1 7 3 2 2 3 5 6
11 13 12 13 13 13 10 13 16 16 16 15 13 10 9 11 12 11 11 11 9 9 9 10 10 11 10 10 9 9 9 8 8 8 8 8 9 9 9 9 8 8 6 7 6 5 5 5 5 3 4 3 3 4 3 4 4 5 3 2 3 6 5
8 8 9 12 11 10 9 11 13 16 16 16 15 13 11 11 11 11 12 11 10 10 10 10 10 10 10 10 10 9 8 8 8 8 8 8 9 8 8 8 8 8 7 7 6 6 5 4 4 4 4 3 3 3 4 5 2 4 4 4 3 6 6
7 9 9 10 12 11 11 12 13 15 15 17 15 16 14 13 12 11 11 12 11 11 11 11 10 10 10 9 9 9 9 8 8 7 7 8 8 8 8 8 8 8 7 7 7 6 5 6 4 3 3 3 3 5 6 5 5 3 6 5 4 5 5
9 9 9 10 10 11 10 11 12 13 14 16 16 15 14 14 13 13 11 12 12 12 12 11 9 8 8 9 9 9 8 8 8 8 6 7 8 8 8 7 8 8 7 7 7 7 6 4 4 4 4 3 4 4 5 6 6 3 6 6 5 5 6
9 9 9 10 10 10 10 10 12 12 13 13 15 15 15 14 13 12 11 11 11 12 10 8 7 8 9 8 9 9 9 8 8 8 7 6 7 8 8 8 8 8 8 7 7 6 5 5 5 5 5 5 5 5 5 5 6 4 6 6 6 6 7
9 8 8 9 9 11 10 11 11 12 13 13 14 15 15 14 12 12 11 11 11 10 7 8 8 8 8 8 8 8 8 9 8 8 7 6 6 8 8 8 9 8 8 8 7 7 7 6 6 5 5 5 6 6 6 5 6 7 3 7 7 7 7
9 9 9 10 12 11 11 11 11 11 12 12 14 14 13 14 14 12 11 10 11 9 9 8 9 9 8 8 8 8 8 8 9 8 7 6 7 8 8 8 9 9 8 8 7 7 7 7 6 6 6 6 6 5 6 5 5 5 5 5 8 8 8
9 8 9 9 10 10 10 10 10 10 12 11 13 13 13 13 12 14 13 13 9 8 8 10 10 9 9 8 8 8 8 9 9 9 7 7 7 7 8 8 8 8 8 7 7 6 7 6 6 6 6 7 6 6 5 5 5 4 7 6 8 9 10
9 9 9 9 10 10 10 10 12 11 12 11 13 12 12 12 13 15 15 10 10 10 9 10 11 10 9 9 8 8 8 9 9 9 8 7 8 8 8 9 8 8 7 7 7 7 7 6 6 6 6 6 7 6 6 5 5 5 5 10 8 9 10
9 9 9 9 10 11 10 10 11 12 11 10 11 11 11 11 12 13 13 11 13 12 10 10 11 10 10 9 8 9 9 10 10 9 8 8 8 8 8 8 8 8 7 7 7 7 7 7 7 7 6 6 6 6 6 6 6 5 5 5 8 9 12
9 9 10 10 10 11 10 11 11 11 11 11 11 10 10 10 10 11 11 11 13 13 12 11 10 9 9 9 9 9 9 10 9 9 8 9 8 8 8 8 8 8 8 8 8 7 7 7 8 7 6 6 6 6 6 6 5 5 5 5 5 6 6
9 9 9 9 11 11 9 9 10 11 11 10 11 10 10 9 10 10 11 11 12 13 12 11 10 11 11 12 10 9 10 9 8 8 8 9 9 8 8 8 8 8 8 8 7 7 7 7 7 7 6 6 6 6 6 6 6 5 6 4 4 5 5
9 9 10 11 11 10 10 10 10 11 11 10 10 10 10 11 10 9 11 11 12 12 12 11 11 11 12 11 8 8 7 8 9 8 7 8 8 8 8 8 8 8 7 7 6 7 7 7 7 7 7 7 7 7 7 7 8 5 5 3 3 4 7
10 11 11 10 10 10 9 10 10 11 11 10 10 11 11 12 10 10 10 11 11 11 11 11 11 12 10 9 8 8 8 8 8 8 8 8 8 8 8 8 7 7 7 7 8 7 7 6 9 9 7 8 8 8 9 9 8 7 7 8 8 8 8
11 10 10 10 10 10 11 12 13 12 12 11 11 11 11 11 11 11 11 11 11 11 11 11 10 10 8 9 8 8 8 8 7 8 8 8 8 8 8 7 9 13 14 11 11 9 9 10 12 14 13 10 10 11 10 10 12 14 14 14 13 12 11
10 11 11 10 9 10 11 12 12 12 13 12 11 11 11 11 11 11 11 10 10 10 11 11 10 9 8 8 7 7 7 6 6 6 8 8 7 7 7 6 6 6 11 16 15 16 17 16 15 15 15 14 13 11 9 11 13 15 15 14 13 12 9
Wind_Direction
169 174 172 164 163 165 169 174 175 173 170 171 174 164 164 169 166 165 165 164 162 161 163 165 162 160 163 169 175 170 166 160 172 166 168 154 143 147 152 157 134 124 160 141 99 89 81 82 81 79 64 43 51 53 46 46 45 74 66 46 45 51 34
171 172 164 167 169 169 173 173 173 170 167 170 172 160 167 169 168 169 168 167 160 163 162 164 153 152 163 163 168 164 155 168 164 160 145 132 144 147 148 144 134 136 113 110 123 120 135 126 107 89 102 101 76 57 61 55 53 52 55 52 53 38 30
167 163 161 163 166 170 170 175 175 170 172 172 164 163 170 171 171 170 166 165 152 152 160 162 150 149 160 160 159 157 158 161 162 161 153 152 156 152 140 135 147 153 134 120 132 135 123 105 96 83 56 64 81 84 80 73 55 58 66 60 58 49 36
155 156 155 157 159 165 170 174 173 164 172 173 158 164 167 167 168 165 166 157 146 158 159 161 158 156 164 159 146 153 158 162 172 162 151 147 149 141 145 150 135 128 151 147 124 117 109 127 106 105 110 85 71 68 66 61 58 58 63 70 80 77 61
144 145 148 154 163 168 171 172 169 159 170 166 154 164 161 158 159 159 160 160 158 159 163 162 159 159 163 154 151 158 161 163 164 154 145 149 145 148 149 150 143 156 118 126 132 130 137 141 135 123 112 144 122 110 93 75 69 61 61 70 83 72 68
146 151 154 163 161 166 167 168 165 159 167 165 158 157 154 156 158 159 157 161 160 154 153 157 158 155 150 150 153 151 158 155 148 145 150 155 157 150 153 141 143 141 165 140 138 122 152 123 114 127 151 131 107 95 78 78 76 73 70 60 48 49 54
146 156 161 163 164 163 168 167 154 149 159 159 145 149 153 158 155 152 157 152 144 151 153 151 152 147 147 147 148 146 153 146 146 152 158 163 155 152 137 133 148 166 128 129 127 134 120 121 127 158 99 82 87 85 86 65 71 86 86 82 91 91 80
151 158 163 163 167 162 160 160 142 142 153 147 151 154 156 151 150 152 144 139 141 151 146 149 151 150 148 151 146 150 148 144 148 158 164 154 147 140 138 145 147 131 142 135 128 133 129 134 159 134 133 113 92 89 85 89 57 52 54 56 41 43 67
154 159 159 164 157 150 158 148 137 143 149 152 156 155 149 148 142 137 139 141 145 148 148 148 146 145 146 145 146 148 142 146 156 163 158 147 145 138 139 137 138 149 133 125 134 134 130 142 109 119 92 93 100 101 94 76 78 62 55 49 49 37 29
149 151 156 166 146 152 149 131 135 142 151 155 157 154 150 140 127 132 139 144 148 146 145 143 143 148 146 147 148 148 150 155 162 164 155 148 144 145 142 138 142 132 125 127 120 114 102 101 119 125 129 124 117 101 98 90 68 80 110 76 29 13 17
143 149 150 138 140 149 144 133 137 140 151 151 152 150 144 147 132 136 142 145 151 152 149 145 149 151 148 150 150 153 156 159 161 162 155 152 149 152 144 152 145 146 136 138 127 123 128 137 138 134 157 132 113 105 99 87 67 36 41 24 43 8 358
146 150 141 138 143 149 152 144 140 145 151 153 156 156 152 147 140 145 151 154 151 146 143 148 154 151 151 156 155 156 157 157 159 160 160 158 155 157 159 167 154 156 144 142 135 149 154 143 161 155 107 97 115 102 93 99 106 57 12 11 25 11 359
152 157 144 156 168 160 156 153 152 151 151 155 157 162 146 143 143 145 151 149 144 144 147 152 150 151 157 159 156 160 160 160 162 161 163 164 159 163 167 175 167 168 147 154 157 181 180 158 181 237 126 174 86 92 78 56 51 29 43 17 40 6 5
151 151 158 166 182 172 168 154 148 152 151 151 157 163 158 148 146 143 146 144 143 148 149 151 149 153 157 158 157 161 164 164 162 163 163 162 158 166 175 173 163 173 154 164 186 197 203 177 191 182 191 174 157 110 133 91 341 88 349 28 358 351 30
158 157 161 169 181 169 168 163 155 155 154 154 158 164 164 151 142 140 144 143 148 149 151 147 149 154 157 158 157 163 161 158 159 157 157 153 160 171 180 171 163 181 172 186 196 208 227 243 244 325 246 153 258 141 140 226 197 58 358 348 356 355 359
149 142 160 172 168 186 177 181 171 160 157 157 163 163 158 147 144 144 142 144 148 147 148 151 154 158 155 155 156 158 154 158 157 152 155 156 166 171 177 179 172 182 185 182 213 198 215 212 241 230 209 217 192 206 217 232 52 85 345 313 319 328 335
168 170 180 181 176 168 163 180 190 168 161 149 143 151 138 137 142 146 144 147 147 149 154 154 154 156 153 153 152 149 152 158 154 158 157 164 168 171 180 179 178 187 186 202 204 210 204 233 211 266 312 296 287 262 260 324 74 80 302 283 294 304 318
176 180 184 184 182 180 181 182 181 168 141 122 116 125 110 92 99 113 137 150 150 152 155 154 153 152 150 149 146 152 158 161 156 160 162 169 171 175 179 182 188 190 193 201 194 209 214 212 220 233 252 250 303 306 322 333 96 125 208 283 289 287 300
184 181 184 184 182 183 186 188 179 152 135 144 146 134 137 128 133 162 163 162 156 151 154 153 152 148 148 147 149 153 161 162 163 165 169 173 176 182 179 187 191 191 200 202 208 204 214 226 225 219 233 246 245 259 302 308 99 106 326 294 286 284 280
179 178 188 189 189 187 184 179 165 153 144 148 154 152 144 141 145 157 160 162 156 154 152 153 154 152 146 146 149 153 162 168 169 172 174 178 184 184 188 192 193 202 197 203 209 217 224 228 220 225 243 251 259 265 272 275 82 79 334 307 298 290 279
183 184 191 196 195 193 186 175 163 153 155 155 162 140 126 143 157 155 156 162 156 154 152 155 158 155 150 152 152 156 168 172 172 177 178 183 190 191 198 194 202 204 207 203 209 219 234 243 245 247 248 248 256 277 281 66 106 133 248 304 282 295 275
192 194 196 197 202 205 189 171 165 155 158 158 162 171 159 158 164 162 155 156 153 151 155 159 162 160 159 160 160 164 172 171 175 182 183 190 194 196 200 198 209 209 208 224 237 211 199 233 258 257 256 257 266 271 285 5 134 173 193 253 271 290 284
192 197 195 194 201 205 195 170 161 152 154 162 165 164 166 155 153 155 147 153 156 156 158 166 169 168 169 169 169 169 173 173 174 181 185 190 193 200 200 203 209 214 213 222 229 236 237 241 244 249 251 250 251 280 294 295 147 171 203 247 271 279 288
178 174 173 189 191 186 174 159 160 157 161 164 167 168 164 159 154 154 153 154 157 162 163 168 170 168 171 174 172 176 178 181 183 182 186 185 192 197 204 208 211 212 216 224 232 242 254 268 256 239 256 262 278 283 292 300 302 177 205 230 242 278 293
151 141 156 174 181 177 177 168 163 160 163 169 170 173 169 164 155 160 163 157 162 170 172 175 174 172 173 172 174 176 183 187 189 192 193 193 198 203 204 207 212 214 211 221 235 237 246 250 242 245 236 244 266 286 288 294 304 219 210 221 224 260 285
155 162 173 176 181 182 173 164 163 168 166 172 174 168 166 170 165 172 169 166 167 177 179 176 170 166 165 168 174 175 181 185 188 198 201 201 203 209 208 205 212 214 218 222 235 235 227 233 250 241 264 263 257 265 279 292 300 305 180 206 214 236 273
157 170 174 178 173 163 168 166 169 173 171 169 166 167 168 172 169 173 173 170 175 176 168 154 142 156 168 174 177 178 181 186 189 197 205 208 207 213 213 209 214 218 219 228 237 251 263 251 260 262 259 263 270 273 275 287 298 303 178 210 218 228 248
155 165 173 173 157 171 162 171 172 171 168 160 167 171 173 168 167 173 173 176 172 164 141 141 161 170 174 177 178 180 181 187 190 199 210 216 215 214 213 214 216 219 225 230 234 242 250 255 254 260 267 269 271 273 281 289 287 303 223 204 225 223 233
159 160 162 164 167 174 165 167 171 173 173 164 169 175 170 170 171 174 177 185 176 145 132 162 174 180 179 175 177 179 184 188 193 198 211 209 210 210 210 210 214 222 223 228 238 244 249 251 256 266 270 272 271 270 275 279 287 249 272 218 210 224 227
153 156 158 159 162 163 167 162 167 169 174 171 170 176 171 167 171 184 187 192 163 138 153 170 179 180 179 179 181 181 185 190 196 205 212 203 200 206 211 209 209 214 221 230 237 241 248 250 261 266 267 270 272 273 276 285 282 256 225 241 206 220 229
153 153 156 157 157 157 165 164 165 167 170 172 172 174 177 177 182 184 191 170 134 159 170 179 184 185 183 182 184 186 191 194 202 205 212 208 205 208 209 212 211 217 222 230 237 244 251 257 260 259 267 266 270 277 281 282 286 293 240 210 225 220 226
149 150 152 154 156 163 167 163 163 166 169 166 167 170 176 179 184 183 189 160 164 170 173 178 181 185 189 185 186 189 192 196 204 209 207 210 207 213 219 220 216 221 226 229 237 244 250 258 260 262 260 264 268 274 277 276 282 277 277 254 232 226 216
147 151 156 158 156 161 169 163 165 165 165 163 163 166 169 173 180 181 170 163 170 169 174 182 181 184 185 191 188 192 198 197 204 205 209 212 216 217 217 219 224 223 227 234 239 242 250 251 259 260 261 263 270 273 275 277 277 282 285 272 266 270 240
146 146 151 152 153 162 161 167 162 160 161 157 160 164 161 171 183 180 178 178 170 170 171 177 183 187 191 194 197 196 198 202 201 210 209 208 215 217 215 221 224 223 224 234 239 246 244 251 256 263 267 268 272 278 283 286 280 278 277 274 286 298 295
146 146 143 148 155 164 159 165 164 162 154 157 160 161 165 174 181 175 177 177 175 167 170 173 180 192 192 197 193 194 190 197 187 203 211 202 210 222 227 221 219 228 241 236 241 243 248 253 259 262 267 274 279 279 278 274 287 304 50 1 23 297 293
145 144 144 144 152 157 152 153 152 155 157 160 162 165 167 169 171 174 174 174 172 169 168 169 177 192 194 181 189 184 183 202 199 188 206 207 209 215 219 227 245 267 261 249 238 237 257 263 266 275 286 285 281 281 281 284 290 335 317 287 273 264 253
145 145 143 148 144 142 143 141 152 159 159 161 160 161 164 168 168 172 169 169 165 167 168 171 179 187 186 181 192 185 188 190 203 195 200 216 211 215 227 229 201 213 231 246 262 267 253 242 245 258 262 257 272 276 278 283 285 279 275 278 276 270 258
148 147 145 148 146 147 148 151 157 159 158 159 160 162 163 163 160 167 162 165 165 172 172 178 180 183 184 184 192 174 202 208 195 210 196 207 216 224 224 233 240 219 215 225 233 241 245 246 247 250 253 250 241 252 271 257 247 251 259 264 269 271 273